Find Starlink 11516

NORAD ID: 62522 Int'l Des: 2025-004 Owner: SPXS Country: US Constellation: starlink operational
LEOCIRCULAR

当前视图

正在加载3D地球...

About Starlink 11516

Starlink 11516 (NORAD 62522) is a starlink constellation satellite (v2 mini d2c) launched Jan 8, 2025 by SPXS of US. It operates in LEO, CIRCULAR orbit with a mass of 960.00 kg.

关于 Starlink 11516

正在加载描述...

即将过境

Passes for default location (London). Set your location on the main map for personalized predictions.

高度历史

Loading altitude history...

两行轨道根数

1 62522U 25004M 26195.88131522 .00173903 00000-0 13252-2 0 9999
2 62522 42.9998 23.9526 0003036 256.7611 103.2918 15.70933730 87217
Epoch: Jul 14, 2026 • Age: 7 hours

当前状态

高度 355.5 km
远地点 / 近地点 N/A
速度 7.70 km/s
星下点 16.08°N, 167.42°W
发射日期 Jan 8, 2025
运行时间 1.5 years
类型 internet

技术详情

分类 Payload
质量 960.00 kg
干质量 910.00 kg
总质量 960.00 kg
长度 0.30 m
直径 4.10 m
跨度 29.00 m
形状 Box + pan
制造商 SPXS
平台类型 Starlink V2MD
阶段状态 In Orbit
所有者/国家 SPXS/US

Most Searched